Hourly Weather Alimbay

Today, 27 February, Saturday

Time Temperature Precipitation Wind Pressure Humidity
00:00 -26°C° 0 mm 5 mps 743 mmHg 95%
01:00 -25°C° 0 mm 5 mps 743 mmHg 95%
02:00 -24°C° 0 mm 5 mps 742 mmHg 94%
03:00 -24°C° 0 mm 5 mps 742 mmHg 94%
04:00 -22°C° 0 mm 6 mps 741 mmHg 95%
05:00 -21°C° 0 mm 7 mps 740 mmHg 93%
06:00 -19°C° 0 mm 8 mps 739 mmHg 92%
07:00 -19°C° 0 mm 9 mps 738 mmHg 90%
08:00 -19°C° 0.2 mm 9 mps 738 mmHg 91%
09:00 -17°C° 0.2 mm 9 mps 737 mmHg 92%
10:00 -17°C° 0.2 mm 10 mps 737 mmHg 93%
11:00 -17°C° 0.9 mm 10 mps 736 mmHg 93%
12:00 -15°C° 0.9 mm 10 mps 735 mmHg 93%
13:00 -14°C° 0.9 mm 10 mps 735 mmHg 93%
14:00 -13°C° 0.4 mm 10 mps 734 mmHg 93%
15:00 -11°C° 0.4 mm 9 mps 734 mmHg 93%
16:00 -11°C° 0.4 mm 9 mps 733 mmHg 93%
17:00 -10°C° 0.3 mm 8 mps 733 mmHg 93%
18:00 -10°C° 0.3 mm 8 mps 732 mmHg 93%
19:00 -9°C° 0.3 mm 7 mps 732 mmHg 92%
20:00 -9°C° 0 mm 7 mps 731 mmHg 93%
21:00 -8°C° 0 mm 7 mps 731 mmHg 93%
22:00 -8°C° 0 mm 7 mps 730 mmHg 94%
23:00 -5°C° 0 mm 6 mps 730 mmHg 95%

Tomorrow, 28 February, Sunday

Time Temperature Precipitation Wind Pressure Humidity
00:00 -4°C° 0 mm 6 mps 730 mmHg 96%
01:00 -2°C° 0 mm 5 mps 729 mmHg 97%
02:00 -1°C° 0.3 mm 5 mps 729 mmHg 97%
03:00 -1°C° 0.3 mm 5 mps 728 mmHg 97%
04:00 -1°C° 0.3 mm 4 mps 728 mmHg 98%
05:00 -1°C° 0.5 mm 5 mps 728 mmHg 98%
06:00 -1°C° 0.5 mm 5 mps 728 mmHg 98%
07:00 -2°C° 0.5 mm 5 mps 727 mmHg 98%
08:00 -2°C° 0.4 mm 5 mps 727 mmHg 98%
09:00 -2°C° 0.4 mm 5 mps 727 mmHg 98%
10:00 -3°C° 0.4 mm 6 mps 728 mmHg 98%
11:00 -3°C° 0.1 mm 6 mps 728 mmHg 95%
12:00 -3°C° 0.1 mm 6 mps 728 mmHg 91%
13:00 -3°C° 0.1 mm 6 mps 728 mmHg 88%
14:00 -3°C° 0.2 mm 7 mps 728 mmHg 89%
15:00 -3°C° 0.2 mm 7 mps 729 mmHg 89%
16:00 -5°C° 0.2 mm 8 mps 729 mmHg 89%
17:00 -8°C° 0 mm 7 mps 730 mmHg 89%
18:00 -11°C° 0 mm 6 mps 730 mmHg 89%
19:00 -14°C° 0 mm 5 mps 731 mmHg 90%
20:00 -15°C° 0 mm 5 mps 731 mmHg 91%
21:00 -17°C° 0 mm 4 mps 732 mmHg 92%
22:00 -18°C° 0 mm 4 mps 733 mmHg 93%
23:00 -18°C° 0 mm 4 mps 733 mmHg 93%

Day after tomorrow, 1 March, Monday

Time Temperature Precipitation Wind Pressure Humidity
00:00 -19°C° 0 mm 4 mps 734 mmHg 94%
01:00 -19°C° 0 mm 4 mps 734 mmHg 94%
02:00 -19°C° 0 mm 4 mps 735 mmHg 95%
03:00 -20°C° 0 mm 4 mps 735 mmHg 95%
04:00 -19°C° 0 mm 3 mps 735 mmHg 95%
05:00 -19°C° 0 mm 3 mps 736 mmHg 95%
06:00 -19°C° 0 mm 3 mps 736 mmHg 96%
07:00 -19°C° 0 mm 3 mps 737 mmHg 96%
08:00 -19°C° 0 mm 3 mps 737 mmHg 95%
09:00 -19°C° 0 mm 4 mps 737 mmHg 94%
10:00 -19°C° 0 mm 4 mps 738 mmHg 93%
11:00 -19°C° 0 mm 4 mps 738 mmHg 92%
12:00 -18°C° 0 mm 4 mps 738 mmHg 92%
13:00 -18°C° 0 mm 4 mps 738 mmHg 91%
14:00 -18°C° 0 mm 4 mps 738 mmHg 91%
15:00 -18°C° 0 mm 4 mps 739 mmHg 92%
16:00 -18°C° 0 mm 4 mps 739 mmHg 92%
17:00 -19°C° 0 mm 4 mps 739 mmHg 93%
18:00 -22°C° 0 mm 4 mps 739 mmHg 94%
19:00 -23°C° 0 mm 4 mps 739 mmHg 95%
20:00 -24°C° 0 mm 4 mps 739 mmHg 96%
21:00 -24°C° 0 mm 4 mps 740 mmHg 96%
22:00 -24°C° 0 mm 4 mps 740 mmHg 97%
23:00 -24°C° 0 mm 4 mps 740 mmHg 97%

2 March, Tuesday

Time Temperature Precipitation Wind Pressure Humidity
00:00 -24°C° 0 mm 4 mps 740 mmHg 97%
01:00 -23°C° 0 mm 3 mps 740 mmHg 97%
02:00 -24°C° 0 mm 4 mps 740 mmHg 98%
03:00 -25°C° 0 mm 4 mps 740 mmHg 98%
04:00 -25°C° 0 mm 4 mps 740 mmHg 98%
05:00 -25°C° 0 mm 4 mps 740 mmHg 98%
06:00 -25°C° 0 mm 4 mps 740 mmHg 97%
07:00 -25°C° 0 mm 4 mps 740 mmHg 97%
08:00 -25°C° 0 mm 4 mps 740 mmHg 96%
09:00 -24°C° 0 mm 4 mps 740 mmHg 95%
10:00 -24°C° 0 mm 4 mps 740 mmHg 94%
11:00 -23°C° 0 mm 4 mps 740 mmHg 93%
12:00 -22°C° 0 mm 4 mps 740 mmHg 92%
13:00 -21°C° 0 mm 5 mps 740 mmHg 91%
14:00 -20°C° 0 mm 4 mps 740 mmHg 91%
15:00 -20°C° 0 mm 4 mps 740 mmHg 92%
16:00 -20°C° 0 mm 4 mps 740 mmHg 92%
17:00 -22°C° 0 mm 4 mps 740 mmHg 93%
18:00 -24°C° 0 mm 4 mps 740 mmHg 94%
19:00 -25°C° 0 mm 4 mps 740 mmHg 95%
20:00 -25°C° 0 mm 4 mps 740 mmHg 95%
21:00 -26°C° 0 mm 4 mps 740 mmHg 95%
22:00 -25°C° 0 mm 3 mps 740 mmHg 95%
23:00 -26°C° 0 mm 4 mps 740 mmHg 95%

3 March, Wednesday

Time Temperature Precipitation Wind Pressure Humidity
00:00 -25°C° 0 mm 4 mps 739 mmHg 94%
01:00 -25°C° 0 mm 4 mps 739 mmHg 94%
02:00 -24°C° 0 mm 4 mps 739 mmHg 94%
03:00 -23°C° 0 mm 4 mps 738 mmHg 95%
04:00 -22°C° 0 mm 4 mps 738 mmHg 95%
05:00 -20°C° 0 mm 4 mps 738 mmHg 95%
06:00 -20°C° 0 mm 5 mps 737 mmHg 95%
07:00 -19°C° 0 mm 5 mps 737 mmHg 95%
08:00 -17°C° 0 mm 6 mps 737 mmHg 94%
09:00 -15°C° 0 mm 6 mps 737 mmHg 93%
10:00 -14°C° 0 mm 7 mps 736 mmHg 92%
11:00 -12°C° 0 mm 7 mps 736 mmHg 91%
12:00 -11°C° 0 mm 8 mps 736 mmHg 90%
13:00 -8°C° 0 mm 8 mps 735 mmHg 90%
14:00 -8°C° 0.2 mm 8 mps 735 mmHg 91%
15:00 -7°C° 0.2 mm 8 mps 734 mmHg 93%
16:00 -7°C° 0.2 mm 8 mps 734 mmHg 94%
17:00 -6°C° 0.3 mm 8 mps 733 mmHg 95%
18:00 -6°C° 0.3 mm 7 mps 732 mmHg 95%
19:00 -6°C° 0.3 mm 7 mps 732 mmHg 96%
20:00 -6°C° 0.2 mm 7 mps 731 mmHg 94%
21:00 -6°C° 0.2 mm 7 mps 731 mmHg 93%
22:00 -6°C° 0.2 mm 7 mps 731 mmHg 92%
23:00 -6°C° 0 mm 7 mps 731 mmHg 92%

4 March, Thursday

Time Temperature Precipitation Wind Pressure Humidity
00:00 -7°C° 0 mm 7 mps 731 mmHg 92%
01:00 -8°C° 0 mm 7 mps 730 mmHg 91%
02:00 -8°C° 0 mm 6 mps 730 mmHg 92%
03:00 -9°C° 0 mm 6 mps 730 mmHg 92%
04:00 -8°C° 0 mm 5 mps 730 mmHg 92%
05:00 -10°C° 0 mm 5 mps 731 mmHg 92%
06:00 -10°C° 0 mm 5 mps 731 mmHg 92%
07:00 -11°C° 0 mm 5 mps 731 mmHg 92%
08:00 -10°C° 0 mm 5 mps 731 mmHg 91%
09:00 -10°C° 0 mm 5 mps 731 mmHg 90%
10:00 -9°C° 0 mm 6 mps 732 mmHg 89%
11:00 -9°C° 0 mm 6 mps 732 mmHg 88%
12:00 -9°C° 0 mm 6 mps 732 mmHg 87%
13:00 -8°C° 0 mm 6 mps 732 mmHg 86%
14:00 -8°C° 0 mm 6 mps 732 mmHg 86%
15:00 -9°C° 0 mm 6 mps 732 mmHg 86%
16:00 -9°C° 0 mm 6 mps 733 mmHg 86%
17:00 -10°C° 0.1 mm 6 mps 733 mmHg 88%
18:00 -10°C° 0.1 mm 6 mps 733 mmHg 90%
19:00 -11°C° 0.1 mm 6 mps 734 mmHg 92%
20:00 -12°C° 0 mm 6 mps 734 mmHg 91%
21:00 -14°C° 0 mm 6 mps 735 mmHg 91%
22:00 -13°C° 0 mm 5 mps 736 mmHg 91%
23:00 -14°C° 0 mm 5 mps 736 mmHg 92%
Show more